Torna al catalogo

STARLINK-2512

AttivoComunicazioniVLEO
NORAD 48319·PAYLOAD·🇺🇸 United States

Lanciato Apr 29, 2021 da Cape Canaveral Space Force Station

Loading…

Prossimi Passaggi (prossime 24 ore)

TLE

AggiornatoSource: CelesTrak SupGP

Epoca: Sep 15, 2026, 01:38 UTC

1 48319C 21036AV  26258.06854167  .00042017  00000+0  13507-2 0  2586
2 48319  53.1581 299.8089 0001100  99.0835 302.6526 15.31692063    12

Traccia STARLINK-2512 in tempo reale con AllMySat

Download on the App Store